Location: Warner Observatory
(35.1353°N, 89.5455°W)
Time: 14:49:27
(UTC-06:00)

Envisat - Pass Details

Date: 24 January 2020
Orbit: 764 x 766 km, 98.1° (Epoch: 23 February)

Event Time Altitude Azimuth Distance (km) Brightness Sun altitude
Rises 05:52:09 0° 24° (NNE) 3,235 6.4 -14.5°
Reaches altitude 10° 05:54:44 10° 35° (NE) 2,305 5.8 -14.0°
Maximum altitude 05:59:11 30° 97° (E) 1,332 5.1 -13.1°
Drops below altitude 10° 06:03:37 10° 158° (SSE) 2,291 6.0 -12.2°
Sets 06:06:09 0° 169° (SSE) 3,213 6.6 -11.7°
